Terminal Aerodrome Forecast
Issued by NWS

Home | Current Version | Previous Version | Text Only | Print | Product List | Glossary On
Versions: 1 2 3 4 5 6 7 8 9 10 11 12 13 14 15 16 17 18 19 20 21 22 23 24 25 26 27 28 29 30 31
000
FTUS43 KDVN 290941 AAB
TAFBRL
TAF AMD
KBRL 290941Z 2910/3006 34005KT 1SM BR OVC002
      TEMPO 2910/2914 1/4SM FG VV001
     FM291400 30006KT P6SM BKN025
     FM291800 31007KT P6SM BKN050=

USA.gov is the U.S. government's official web portal to all federal, state and local government web resources and services.